Weather in Meknes

Morocco     33°52′46″N   5°33′32″W
temp.,
°C
wind,
m/s
gust,
m/s
humid.,
%
clouds,
%
prec.,
mm/h
press.,
hPa
HPBL,
m
16 april, fri
fri1600:00+12sw118999 1.1 101311
03:00+11ssw00924 0.2 101310
06:00+10wsw11944 0.3 101410
09:00+16nnw11745 0.2 1014581
12:00+18nw336350 1.5 10141285
15:00+18nw33666 2.9 1013973
18:00+17nw227614 4.6 1014552
21:00+13wsw11922 1.6 101611
17 april, sat
sat1700:00+12sw119312 2.0 101611
03:00+11sw019320 0.0 101610
06:00+11ssw009311 0.0 101713
09:00+16nw117411 0.0 1018637
12:00+19nw22550 0.1 10171408
15:00+21nw43442 0.0 10151936
18:00+19nnw34546 0.0 1016120
21:00+14nw22800 0.0 101911
18 april, sun
sun1800:00+12ssw11865 0.0 101911
03:00+12s11855 0.0 101810
06:00+11se118267 0.0 101810
09:00+17ene2259100 0.0 1019407
12:00+20nne2142100 0.0 10181117
15:00+21nne3236100 0.0 10171226
18:00+19n2250100 0.0 101836
21:00+15nw115799 0.0 102010
19 april, mon
mon1900:00+13ssw11725 0.0 101910
03:00+12s11685 0.0 101810
06:00+11wsw11740 0.0 101810
09:00+17w22583 0.0 1019479
12:00+21wnw33400 0.0 10181159
15:00+22nw44320 0.0 10161521
18:00+18nw4654100 0.0 1017297
21:00+13wnw2269100 0.0 101920
20 april, tue
tue2000:00+12w22805 0.0 101911
03:00+11ssw22864 0.0 101711
06:00+10sw11895 0.0 101710
09:00+16wnw22535 0.0 1017564
12:00+19nw4449100 0.0 10161289
15:00+21nw4446100 0.0 10141566
18:00+17nw45607 0.0 1014663
21:00+12wnw22855 0.0 101628